Details From LESA - Salamanca
To LPMA - Madeira
Flight Number -
Tags Generated
Created
Modified
Stats Distance 734 nm / 1,359 km
Max Altitude 0 ft / 0 m
Waypoints 4
Social Downloads 0
Likes 0
Share VATSIM

Download

Looking for another format? Having issues loading an existing format? Contact us
Advertisement - Login to hide

Notes

Generated

Route

LESA ESP11 MAD LPMA

ID Type Via Altitude Latitude Longitude Leg Dist Tot Dist Heading (true) Name
O LESA APT - 0 ft / 0 m 40.94979˚ -5.51276˚ - 0 nm - -
ESP11 FIX - 0 ft / 0 m 38.59988˚ -9.11736˚ 218 nm 218 nm 231° / 229° -
MAD NDB - 0 ft / 0 m 32.74813˚ -16.70651˚ 510 nm 728 nm 229° / 224° MADEIRA NDB
O LPMA APT - 0 ft / 0 m 32.68900˚ -16.78409˚ 5 nm 733 nm 228° / 228° -

Altitude Profile

Advertisement - Login to hide

Weather


0- 5 10 15 20 25 30 35+ Temperature / ° C

Clouds and Precipitation
Forecast for 2018-05-21 18:00 UTC. Updated 2 hours ago

Ground ~20,000 ft ~40,000 ft Winds

LESA

Details ICAO LESA (SLM)
Name Salamanca
Region Spain
Timezone Europe/Madrid (UTC+2.0)
Stats Elevation 2,595 ft / 791 m (AMSL)
Location 40.952150° -5.501645°
Runways 2
Magnetic Variation 1.239° W

METAR

LESA 211700Z 17010KT 8000 TSRA SCT037CB SCT045 14/11 Q1012

Decode

TAF

TAF AMD LESA 211634Z 2116/2212 VRB05KT 9999 SCT040 TX19/2212Z TN08/2206Z TEMPO 2116/2120 SCT040TCU TEMPO 2116/2118 VRB15G25KT 3000 TS SHRA SCT035CB

Decode

Departure Runways

ID Width Length Bearing (true) Bearing (mag) Surface Threshold Offset Overrun Length
03 197 ft / 60 m 8,252 ft / 2,515 m 27.81° 29.05° Asphalt 0 ft / 0 m 902 ft / 275 m
08 400 ft / 122 m 6,601 ft / 2,012 m 74.07° 75.31° Dirt 0 ft / 0 m 0 ft / 0 m
21 197 ft / 60 m 8,252 ft / 2,515 m 207.82° 209.06° Asphalt 0 ft / 0 m 902 ft / 275 m
26 400 ft / 122 m 6,601 ft / 2,012 m 254.09° 255.33° Dirt 0 ft / 0 m 0 ft / 0 m

LPMA

Details ICAO LPMA (FNC)
Name Madeira
Region Portugal
Timezone Atlantic/Madeira (UTC+1.0)
Stats Elevation 192 ft / 59 m (AMSL)
Location 32.697704° -16.774449°
Runways 1
Magnetic Variation 4.928° W

METAR

LPMA 211700Z 05005KT 010V080 9999 FEW018 BKN033 20/14 Q1016

Decode

TAF

TAF LPMA 211100Z 2112/2212 20008KT 9999 SCT016 TEMPO 2112/2118 SCT015 BKN030 BECMG 2118/2120 VRB05KT BKN015 TEMPO 2120/2203 6000 -RADZ SCT008 BKN013 BECMG 2200/2202 35008KT BECMG 2210/2212 SCT015 BKN030

Decode

Destination Runways

ID Width Length Bearing (true) Bearing (mag) Surface Threshold Offset Overrun Length
05 141 ft / 43 m 8,683 ft / 2,647 m 42.98° 47.91° Asphalt 472 ft / 144 m 0 ft / 0 m
23 141 ft / 43 m 8,683 ft / 2,647 m 222.99° 227.92° Asphalt 466 ft / 142 m 0 ft / 0 m